• In Netherlands
  • List of Countries
  • For 7 days
  • Water Temperature
  • Satellite Maps
  • Weather Map
  • Weather Widgets
  • user-avatar
    Login

    Hourly Weather Byala

    Today, 28 June, Wednesday

    Time Temperature Precipitation Wind Pressure Humidity
    00:00 +20°C° 0 mm 1 mps 749 mmHg 90%
    01:00 +19°C° 0 mm 1 mps 749 mmHg 91%
    02:00 +17°C° 0 mm 0 mps 748 mmHg 92%
    03:00 +19°C° 0 mm 1 mps 748 mmHg 92%
    04:00 +19°C° 0 mm 1 mps 748 mmHg 92%
    05:00 +19°C° 0 mm 1 mps 748 mmHg 92%
    06:00 +22°C° 0 mm 1 mps 748 mmHg 84%
    07:00 +24°C° 0 mm 1 mps 748 mmHg 76%
    08:00 +26°C° 0 mm 1 mps 748 mmHg 67%
    09:00 +28°C° 0 mm 1 mps 749 mmHg 62%
    10:00 +29°C° 0 mm 2 mps 749 mmHg 56%
    11:00 +30°C° 0 mm 2 mps 749 mmHg 50%
    12:00 +31°C° 0 mm 2 mps 748 mmHg 49%
    13:00 +31°C° 0 mm 3 mps 748 mmHg 48%
    14:00 +33°C° 0 mm 3 mps 748 mmHg 47%
    15:00 +31°C° 0 mm 3 mps 748 mmHg 51%
    16:00 +30°C° 0 mm 4 mps 747 mmHg 54%
    17:00 +30°C° 0 mm 4 mps 747 mmHg 57%
    18:00 +28°C° 0 mm 4 mps 747 mmHg 66%
    19:00 +26°C° 0 mm 3 mps 747 mmHg 74%
    20:00 +24°C° 0 mm 3 mps 747 mmHg 83%
    21:00 +22°C° 0 mm 3 mps 747 mmHg 85%
    22:00 +21°C° 0 mm 3 mps 747 mmHg 88%
    23:00 +21°C° 0 mm 3 mps 748 mmHg 91%

    Tomorrow, 29 June, Thursday

    Time Temperature Precipitation Wind Pressure Humidity
    00:00 +21°C° 0 mm 3 mps 748 mmHg 92%
    01:00 +21°C° 0 mm 3 mps 747 mmHg 93%
    02:00 +20°C° 0 mm 2 mps 747 mmHg 93%
    03:00 +20°C° 0 mm 2 mps 747 mmHg 93%
    04:00 +20°C° 0 mm 2 mps 747 mmHg 92%
    05:00 +20°C° 0 mm 2 mps 747 mmHg 92%
    06:00 +24°C° 0 mm 2 mps 748 mmHg 83%
    07:00 +26°C° 0 mm 3 mps 748 mmHg 73%
    08:00 +28°C° 0 mm 3 mps 748 mmHg 64%
    09:00 +30°C° 0 mm 3 mps 748 mmHg 58%
    10:00 +32°C° 0 mm 4 mps 748 mmHg 53%
    11:00 +34°C° 0 mm 5 mps 748 mmHg 47%
    12:00 +35°C° 0 mm 5 mps 748 mmHg 45%
    13:00 +36°C° 0 mm 5 mps 747 mmHg 43%
    14:00 +36°C° 0 mm 5 mps 747 mmHg 41%
    15:00 +36°C° 0 mm 5 mps 747 mmHg 43%
    16:00 +35°C° 0 mm 5 mps 746 mmHg 46%
    17:00 +34°C° 0 mm 6 mps 746 mmHg 49%
    18:00 +32°C° 0 mm 5 mps 746 mmHg 57%
    19:00 +29°C° 0 mm 5 mps 746 mmHg 65%
    20:00 +26°C° 0 mm 5 mps 746 mmHg 72%
    21:00 +26°C° 0 mm 5 mps 746 mmHg 74%
    22:00 +25°C° 0 mm 5 mps 746 mmHg 75%
    23:00 +25°C° 0 mm 5 mps 747 mmHg 77%

    Day after tomorrow, 30 June, Friday

    Time Temperature Precipitation Wind Pressure Humidity
    00:00 +25°C° 0 mm 5 mps 747 mmHg 75%
    01:00 +25°C° 0 mm 4 mps 747 mmHg 73%
    02:00 +23°C° 0 mm 4 mps 747 mmHg 72%
    03:00 +25°C° 0 mm 4 mps 747 mmHg 69%
    04:00 +25°C° 0 mm 3 mps 747 mmHg 66%
    05:00 +25°C° 0 mm 3 mps 747 mmHg 63%
    06:00 +27°C° 0 mm 3 mps 747 mmHg 56%
    07:00 +30°C° 0 mm 3 mps 748 mmHg 48%
    08:00 +32°C° 0 mm 2 mps 748 mmHg 41%
    09:00 +35°C° 0 mm 2 mps 748 mmHg 37%
    10:00 +36°C° 0 mm 2 mps 749 mmHg 32%
    11:00 +38°C° 0 mm 2 mps 749 mmHg 28%
    12:00 +39°C° 0 mm 2 mps 749 mmHg 27%
    13:00 +39°C° 0 mm 2 mps 748 mmHg 25%
    14:00 +40°C° 0 mm 3 mps 748 mmHg 24%
    15:00 +40°C° 0 mm 3 mps 748 mmHg 25%
    16:00 +40°C° 0 mm 3 mps 748 mmHg 25%
    17:00 +39°C° 0 mm 3 mps 748 mmHg 26%
    18:00 +36°C° 0 mm 3 mps 748 mmHg 35%
    19:00 +31°C° 0 mm 3 mps 748 mmHg 43%
    20:00 +28°C° 0 mm 3 mps 748 mmHg 51%
    21:00 +27°C° 0 mm 2 mps 748 mmHg 53%
    22:00 +26°C° 0 mm 2 mps 748 mmHg 54%
    23:00 +25°C° 0 mm 2 mps 749 mmHg 56%

    1 July, Saturday

    Time Temperature Precipitation Wind Pressure Humidity
    00:00 +25°C° 0 mm 2 mps 749 mmHg 58%
    01:00 +24°C° 0 mm 1 mps 749 mmHg 60%
    02:00 +24°C° 0 mm 1 mps 749 mmHg 62%
    03:00 +24°C° 0 mm 1 mps 748 mmHg 61%
    04:00 +24°C° 0 mm 1 mps 748 mmHg 60%
    05:00 +24°C° 0 mm 1 mps 748 mmHg 59%
    06:00 +27°C° 0 mm 1 mps 748 mmHg 52%
    07:00 +30°C° 0 mm 2 mps 748 mmHg 44%
    08:00 +34°C° 0 mm 2 mps 749 mmHg 37%
    09:00 +36°C° 0 mm 3 mps 748 mmHg 34%
    10:00 +37°C° 0 mm 4 mps 748 mmHg 31%
    11:00 +38°C° 0 mm 4 mps 748 mmHg 28%
    12:00 +40°C° 0 mm 5 mps 748 mmHg 28%
    13:00 +40°C° 0 mm 5 mps 747 mmHg 28%
    14:00 +40°C° 0 mm 5 mps 747 mmHg 27%
    15:00 +39°C° 0 mm 5 mps 746 mmHg 31%
    16:00 +36°C° 0 mm 5 mps 746 mmHg 34%
    17:00 +35°C° 0 mm 5 mps 746 mmHg 37%
    18:00 +32°C° 0 mm 5 mps 745 mmHg 45%
    19:00 +29°C° 0 mm 5 mps 745 mmHg 53%
    20:00 +26°C° 0 mm 4 mps 745 mmHg 61%
    21:00 +25°C° 0 mm 4 mps 745 mmHg 65%
    22:00 +25°C° 0 mm 4 mps 745 mmHg 68%
    23:00 +23°C° 0 mm 4 mps 745 mmHg 72%

    2 July, Sunday

    Time Temperature Precipitation Wind Pressure Humidity
    00:00 +22°C° 0 mm 3 mps 745 mmHg 74%
    01:00 +22°C° 0 mm 3 mps 745 mmHg 76%
    02:00 +21°C° 0 mm 2 mps 744 mmHg 78%
    03:00 +21°C° 0 mm 2 mps 744 mmHg 79%
    04:00 +22°C° 0 mm 1 mps 744 mmHg 80%
    05:00 +21°C° 0 mm 1 mps 744 mmHg 81%
    06:00 +24°C° 0 mm 2 mps 744 mmHg 71%
    07:00 +26°C° 0 mm 2 mps 744 mmHg 61%
    08:00 +29°C° 0 mm 3 mps 744 mmHg 51%
    09:00 +30°C° 0 mm 3 mps 744 mmHg 49%
    10:00 +33°C° 0 mm 4 mps 744 mmHg 47%
    11:00 +34°C° 0 mm 4 mps 744 mmHg 45%
    12:00 +34°C° 0 mm 4 mps 744 mmHg 44%
    13:00 +35°C° 0 mm 5 mps 743 mmHg 44%
    14:00 +35°C° 0 mm 5 mps 743 mmHg 44%
    15:00 +34°C° 0 mm 5 mps 742 mmHg 47%
    16:00 +33°C° 0 mm 6 mps 742 mmHg 51%
    17:00 +30°C° 0 mm 6 mps 742 mmHg 55%
    18:00 +28°C° 0 mm 5 mps 742 mmHg 67%
    19:00 +26°C° 0 mm 4 mps 742 mmHg 78%
    20:00 +22°C° 0 mm 3 mps 742 mmHg 89%
    21:00 +22°C° 0 mm 4 mps 742 mmHg 87%
    22:00 +22°C° 0 mm 6 mps 743 mmHg 85%
    23:00 +21°C° 0 mm 7 mps 743 mmHg 82%

    3 July, Monday

    Time Temperature Precipitation Wind Pressure Humidity
    00:00 +21°C° 0 mm 7 mps 743 mmHg 84%
    01:00 +21°C° 0 mm 7 mps 743 mmHg 85%
    02:00 +21°C° 0 mm 8 mps 743 mmHg 87%
    03:00 +21°C° 0 mm 7 mps 743 mmHg 86%
    04:00 +21°C° 0 mm 7 mps 743 mmHg 85%
    05:00 +21°C° 0 mm 7 mps 743 mmHg 85%
    06:00 +21°C° 0 mm 7 mps 743 mmHg 79%
    07:00 +22°C° 0 mm 7 mps 743 mmHg 72%
    08:00 +23°C° 0 mm 8 mps 743 mmHg 66%
    09:00 +24°C° 0.1 mm 8 mps 743 mmHg 63%
    10:00 +26°C° 0.1 mm 8 mps 744 mmHg 60%
    11:00 +27°C° 0.1 mm 8 mps 744 mmHg 57%
    12:00 +26°C° 0.3 mm 8 mps 744 mmHg 60%
    13:00 +26°C° 0.3 mm 8 mps 744 mmHg 64%
    14:00 +24°C° 0.3 mm 8 mps 744 mmHg 68%
    15:00 +23°C° 0.3 mm 9 mps 744 mmHg 71%
    16:00 +22°C° 0.3 mm 9 mps 744 mmHg 75%
    17:00 +21°C° 0.3 mm 10 mps 744 mmHg 78%
    18:00 +21°C° 1.1 mm 10 mps 744 mmHg 81%
    19:00 +19°C° 1.1 mm 10 mps 745 mmHg 84%
    20:00 +18°C° 1.1 mm 10 mps 745 mmHg 87%
    21:00 +18°C° 1.3 mm 10 mps 745 mmHg 88%
    22:00 +17°C° 1.3 mm 10 mps 745 mmHg 89%
    23:00 +17°C° 1.3 mm 10 mps 746 mmHg 90%
    Show more